Weather Roundup
Issued by NWS Chicago, IL

Home | Current Version | Previous Version | Graphics & Text | Print | Product List | Glossary On
Versions: 1 2 3 4 5 6 7 8 9 10 11 12 13 14 15 16 17 18 19 20 21 22 23 24 25 26 27 28 29 30 31 32 33 34 35 36 37 38 39 40 41 42 43 44 45 46 47 48 49 50
000
NZUS59 KLOT 260810
HRRLOT

CHICAGO AREA WEATHER ROUNDUP
NATIONAL WEATHER SERVICE CHICAGO/ROMEOVILLE IL
200 AM CST FRI DEC 26 2014

NOTE: "FAIR" INDICATES FEW OR NO CLOUDS BELOW 12,000 FEET WITH NO
SIGNIFICANT WEATHER AND/OR OBSTRUCTIONS TO VISIBILITY.

* THESE STATIONS ARE NOT UNDER NWS QUALITY CONTROL. THEY ALSO MAY NOT
  REPORT WEATHER SUCH AS PRECIPITATION OR FOG.

ILZ005-006-012>014-019>023-260900-
NORTHEAST ILLINOIS

CITY           SKY/WX    TMP DP  RH WIND       PRES   REMARKS
OHARE          CLOUDY    38  32  79 S12       30.00S
MIDWAY         MOCLDY    39  33  79 S12       30.01F
AURORA         MOCLDY    35  31  85 S8        29.99S WCI  29
LANSING*       PTCLDY    36  32  87 S10       30.04S
JOLIET*        PTCLDY    35  32  90 S5        30.01F WCI  31
WAUKEGAN       CLOUDY    39  33  79 S17       29.97S
DUPAGE AIRPORT MOCLDY    36  32  85 S13       29.98F
WHEELING       CLOUDY    39  33  79 S12       30.01S
KANKAKEE*      CLEAR     35  32  90 S12       30.04S WCI  26
MORRIS*        PTCLDY    33  32  96 S6        30.00S WCI  28
LEWIS AIRPORT* PTCLDY    34  32  93 S8        30.01S WCI  27
NORTHERLY IS     N/A     39  32  76 SW13        N/A
$$

WIZ051-052-058>065-066-070>072-260900-
SOUTHEAST WISCONSIN

CITY           SKY/WX    TMP DP  RH WIND       PRES   REMARKS
MILWAUKEE      MOCLDY    38  32  79 SW10      29.97S
KENOSHA*       MOCLDY    40  34  79 SW12      29.97S
RACINE*        CLOUDY    40  33  76 S8        29.99S
BURLINGTON     MOCLDY    37  32  85 S12       29.95S
WAUKESHA       PTCLDY    36  32  87 S12       29.95S
WEST BEND      PTCLDY    36  32  87 S7        29.94S
$$

INZ001>003-010>013-019-020-260900-
NORTHWEST INDIANA

CITY           SKY/WX    TMP DP  RH WIND       PRES   REMARKS
GARY*          CLEAR     39  31  72 S7        30.04S
MICHIGAN CITY* NOT AVBL
RENSSELAER*    NOT AVBL
VALPARAISO     CLEAR     34  31  88 S9        30.06S WCI  27
$$

LMZ740>746-260900-
SOUTHERN LAKE MICHIGAN

STATION/POSITION TIME  SKY/WX   TEMP WIND        PRES    VSBY
                                AIR  DIR/SP/G
                 (UTC)          (F)  (DEG/KT/KT) (MB)    (MI)
HARRISON CRIB    0800            39  190/ 23/ 27   N/A
BURNHAM HARBOR   0800            39  210/ 11/ 16   N/A
CALUMET HARBOR   0800            38  180/ 10/ 13 1015.4F
BURNS HARBOR     NOT AVBL
MICHIGAN CITY    0800            37  150/ 15/ 18   N/A
$$

ABBREVIATIONS USED IN REMARKS
   TC - TEMPERATURE IN CELSIUS
  WCI - WIND CHILL INDEX
   HX - HEAT INDEX
  VSB - VISIBILITY
$$



USA.gov is the U.S. government's official web portal to all federal, state and local government web resources and services.